Tracking 22879 objects as of 22-Apr-2021
HD Live streaming from Space Station
objects crossing your sky now

UPPER FREE FLYER

Track UPPER FREE FLYER now!
10-day predictions


NORAD ID: 43763
Int'l Code: 2018-099F
Perigee: 578.5 km
Apogee: 595.0 km
Inclination: 97.7 °
Period: 96.3 minutes
Semi major axis: 6957 km
RCS: Unknown
Launch date: December 3, 2018
Source: United States (US)
Launch site: AIR FORCE WESTERN TEST RANGE (AFWTR)
aabbcc
Your satellite tracking list
Your tracking list is empty




NASA's NSSDC Master Catalog

Two Line Element Set (TLE):
1 43763U 18099F   21111.81616710  .00000871  00000-0  82944-4 0  9993
2 43763  97.6674 184.0718 0011892 233.0703 126.9430 14.95882280130053
Source of the keplerian elements: AFSPC